Flag for Russia Weather past 2 weeks in Samara, Russia

Now
77 °F

Sunny.


Feels Like: 79 °F
Forecast: 59 / 74 °F
Wind: 10 mph from East

Location: Samara

Current Time: Aug 1, 2015 at 10:36:14 AM

Latest Report: Aug 1, 2015 at 10:00 AM


Visibility: 10 mi

Pressure: 29.95 "Hg

Humidity: 47%

Dew point: 55 °F

Location of SamaraLocation

Historic Weather in Samara — Graph

°F

Samara temperature yesterday

Maximum temperature yesterday: 84 °F (at 3:30 PM)
Minimum temperature yesterday: 61 °F (at 1:30 AM)
Average temperature yesterday: 75 °F

Past Weeks' High & Low Weather Summary

 TemperatureHumidityPressure
High86 °F (Jul 29, 4:30 PM)88% (Jul 21, 7:30 PM)29.98 "Hg (Jul 21, 7:30 PM)
Low52 °F (Jul 20, 12:30 AM)19% (Jul 29, 4:30 PM)29.50 "Hg (Jul 21, 2:00 PM)
Average68 °F52%29.82 "Hg
* Reported Jul 17 9:00 AM — Aug 1 9:30 AM, Samara, Weather by CustomWeather, © 2015

Note: Actual official high and low records may vary slightly from our data, if they occured in-between our weather recording intervals... More about our weather records

Advertising

Samara weather history for previous 24 hours

 ConditionsComfort  
Time TempWeatherWind HumidityBarometerVisibility
9:30 AM
Sat, Aug 1
75 °FSunny.10 mph47%29.95 "Hg10 mi
8:30 AM72 °FCloudy.8 mph65%29.95 "HgN/A
8:00 AM68 °FCloudy.6 mph73%29.95 "HgN/A
7:30 AM68 °FMore clouds than sun.6 mph78%29.95 "HgN/A
7:00 AM68 °FMore clouds than sun.6 mph78%29.95 "HgN/A
6:30 AM66 °FMore clouds than sun.6 mph78%29.95 "HgN/A
6:00 AM66 °FSprinkles. More clouds than sun.3 mph78%29.98 "HgN/A
5:30 AM68 °FMostly cloudy.No wind69%29.95 "HgN/A
5:00 AM66 °FMostly cloudy.No wind78%29.95 "HgN/A
4:30 AM66 °FMostly cloudy.1 mph73%29.92 "HgN/A
4:00 AM64 °FPartly cloudy.No wind78%29.92 "HgN/A
3:30 AM64 °FPartly cloudy.No wind78%29.92 "HgN/A
3:00 AM68 °FClear.1 mph69%29.92 "Hg10 mi
2:30 AM66 °FPassing clouds.3 mph73%29.92 "HgN/A
1:30 AM70 °FClear.3 mph64%29.92 "Hg10 mi
1:00 AM70 °FClear.3 mph64%29.92 "Hg10 mi
12:30 AM68 °FClear.3 mph69%29.92 "Hg10 mi
12:00 AM72 °FClear.3 mph61%29.89 "Hg10 mi
11:30 PM
Fri, Jul 31
72 °FClear.3 mph61%29.89 "Hg10 mi
11:00 PM73 °FClear.3 mph57%29.89 "Hg10 mi
10:30 PM73 °FClear.1 mph57%29.89 "Hg10 mi
10:00 PM75 °FClear.6 mph54%29.89 "Hg10 mi
9:30 PM75 °FSunny.6 mph54%29.89 "Hg10 mi
9:00 PM75 °FSunny.3 mph54%29.86 "Hg10 mi
8:30 PM77 °FSunny.3 mph51%29.86 "Hg10 mi
8:00 PM79 °FPassing clouds.6 mph45%29.86 "HgN/A
7:30 PM81 °FPassing clouds.6 mph42%29.86 "HgN/A
7:00 PM81 °FSunny.8 mph42%29.83 "Hg10 mi
6:30 PM81 °FSunny.8 mph39%29.83 "Hg10 mi
6:00 PM82 °FSunny.13 mph37%29.83 "Hg10 mi
5:30 PM82 °FSunny.17 mph35%29.83 "Hg10 mi
5:00 PM84 °FMore clouds than sun.13 mph33%29.83 "HgN/A
4:30 PM82 °FBroken clouds.15 mph32%29.86 "HgN/A
4:00 PM84 °FBroken clouds.20 mph31%29.86 "HgN/A
3:30 PM84 °FMore clouds than sun.15 mph33%29.86 "HgN/A
3:00 PM82 °FMore clouds than sun.13 mph35%29.86 "HgN/A
2:30 PM81 °FMore clouds than sun.10 mph37%29.86 "HgN/A
2:00 PM79 °FMore clouds than sun.10 mph39%29.86 "HgN/A
1:30 PM79 °FMore clouds than sun.10 mph39%29.86 "HgN/A
1:00 PM79 °FMore clouds than sun.10 mph39%29.89 "HgN/A
12:30 PM81 °FMore clouds than sun.13 mph37%29.86 "HgN/A
12:00 PM81 °FMore clouds than sun.10 mph39%29.89 "HgN/A
11:30 AM81 °FMore clouds than sun.13 mph34%29.86 "HgN/A
11:00 AM81 °FMore clouds than sun.10 mph37%29.86 "HgN/A
10:30 AM79 °FMostly cloudy.13 mph39%29.86 "HgN/A
10:00 AM79 °FMostly cloudy.8 mph39%29.86 "HgN/A
Weather by CustomWeather, © 2015

See weather overviewHow to use our weather pages